Year,Month,Day,Hour,Minute,Value (Times are PST for temperature in C)
2017,09,29,00,00,14.40
2017,09,29,00,01,14.40
2017,09,29,00,02,14.40
2017,09,29,00,03,14.40
2017,09,29,00,04,14.40
2017,09,29,00,05,14.30
2017,09,29,00,06,14.30
2017,09,29,00,07,14.30
2017,09,29,00,08,14.30
2017,09,29,00,09,14.30
2017,09,29,00,10,14.30
2017,09,29,00,11,14.30
2017,09,29,00,12,14.30
2017,09,29,00,13,14.30
2017,09,29,00,14,14.30
2017,09,29,00,15,14.30
2017,09,29,00,16,14.30
2017,09,29,00,17,14.30
2017,09,29,00,18,14.20
2017,09,29,00,19,14.20
2017,09,29,00,20,14.20
2017,09,29,00,21,14.20
2017,09,29,00,22,14.20
2017,09,29,00,23,14.20
2017,09,29,00,24,14.20
2017,09,29,00,25,14.20
2017,09,29,00,26,14.10
2017,09,29,00,27,14.10
2017,09,29,00,28,14.10
2017,09,29,00,29,14.10
2017,09,29,00,30,14.10
2017,09,29,00,31,14.10
2017,09,29,00,32,14.10
2017,09,29,00,33,14.10
2017,09,29,00,34,14.10
2017,09,29,00,35,14.10
2017,09,29,00,36,14.10
2017,09,29,00,37,14.10
2017,09,29,00,38,14.10
2017,09,29,00,39,14.10
2017,09,29,00,40,14.10
2017,09,29,00,41,14.00
2017,09,29,00,42,14.00
2017,09,29,00,43,14.00
2017,09,29,00,44,14.00
2017,09,29,00,45,14.00
2017,09,29,00,46,14.00
2017,09,29,00,47,13.90
2017,09,29,00,48,13.90
2017,09,29,00,49,13.90
2017,09,29,00,50,13.90
2017,09,29,00,51,13.90
2017,09,29,00,52,13.90
2017,09,29,00,53,13.90
2017,09,29,00,54,13.80
2017,09,29,00,55,13.80
2017,09,29,00,56,13.80
2017,09,29,00,57,13.80
2017,09,29,00,58,13.80
2017,09,29,00,59,13.80
2017,09,29,01,00,13.80
2017,09,29,01,01,13.80
2017,09,29,01,02,13.80
2017,09,29,01,03,13.80
2017,09,29,01,04,13.80
2017,09,29,01,05,13.80
2017,09,29,01,06,13.80
2017,09,29,01,07,13.70
2017,09,29,01,08,13.70
2017,09,29,01,09,13.70
2017,09,29,01,10,13.70
2017,09,29,01,11,13.70
2017,09,29,01,12,13.70
2017,09,29,01,13,13.70
2017,09,29,01,14,13.70
2017,09,29,01,15,13.70
2017,09,29,01,16,13.70
2017,09,29,01,17,13.70
2017,09,29,01,18,13.70
2017,09,29,01,19,13.70
2017,09,29,01,20,13.80
2017,09,29,01,21,13.90
2017,09,29,01,22,14.00
2017,09,29,01,23,14.10
2017,09,29,01,24,14.10
2017,09,29,01,25,14.20
2017,09,29,01,26,14.30
2017,09,29,01,27,14.40
2017,09,29,01,28,14.40
2017,09,29,01,29,14.50
2017,09,29,01,30,14.50
2017,09,29,01,31,14.60
2017,09,29,01,32,14.70
2017,09,29,01,33,14.70
2017,09,29,01,34,14.80
2017,09,29,01,35,14.80
2017,09,29,01,36,14.90
2017,09,29,01,37,14.90
2017,09,29,01,38,15.00
2017,09,29,01,39,15.00
2017,09,29,01,40,15.00
2017,09,29,01,41,15.10
2017,09,29,01,42,15.10
2017,09,29,01,43,15.10
2017,09,29,01,44,15.20
2017,09,29,01,45,15.20
2017,09,29,01,46,15.20
2017,09,29,01,47,15.20
2017,09,29,01,48,15.20
2017,09,29,01,49,15.30
2017,09,29,01,50,15.30
2017,09,29,01,51,15.30
2017,09,29,01,52,15.30
2017,09,29,01,53,15.30
2017,09,29,01,54,15.40
2017,09,29,01,55,15.40
2017,09,29,01,56,15.50
2017,09,29,01,57,15.50
2017,09,29,01,58,15.50
2017,09,29,01,59,15.60
2017,09,29,02,00,15.60
2017,09,29,02,01,15.60
2017,09,29,02,02,15.70
2017,09,29,02,03,15.70
2017,09,29,02,04,15.70
2017,09,29,02,05,15.70
2017,09,29,02,06,15.60
2017,09,29,02,07,15.60
2017,09,29,02,08,15.60
2017,09,29,02,09,15.60
2017,09,29,02,10,15.60
2017,09,29,02,11,15.50
2017,09,29,02,12,15.50
2017,09,29,02,13,15.40
2017,09,29,02,14,15.40
2017,09,29,02,15,15.40
2017,09,29,02,16,15.40
2017,09,29,02,17,15.30
2017,09,29,02,18,15.30
2017,09,29,02,19,15.30
2017,09,29,02,20,15.30
2017,09,29,02,21,15.30
2017,09,29,02,22,15.30
2017,09,29,02,23,15.30
2017,09,29,02,24,15.30
2017,09,29,02,25,15.30
2017,09,29,02,26,15.30
2017,09,29,02,27,15.30
2017,09,29,02,28,15.30
2017,09,29,02,29,15.30
2017,09,29,02,30,15.30
2017,09,29,02,31,15.30
2017,09,29,02,32,15.30
2017,09,29,02,33,15.30
2017,09,29,02,34,15.30
2017,09,29,02,35,15.30
2017,09,29,02,36,15.20
2017,09,29,02,37,15.20
2017,09,29,02,38,15.20
2017,09,29,02,39,15.20
2017,09,29,02,40,15.20
2017,09,29,02,41,15.20
2017,09,29,02,42,15.20
2017,09,29,02,43,15.20
2017,09,29,02,44,15.20
2017,09,29,02,45,15.20
2017,09,29,02,46,15.20
2017,09,29,02,47,15.20
2017,09,29,02,48,15.20
2017,09,29,02,49,15.20
2017,09,29,02,50,15.20
2017,09,29,02,51,15.20
2017,09,29,02,52,15.20
2017,09,29,02,53,15.20
2017,09,29,02,54,15.20
2017,09,29,02,55,15.20
2017,09,29,02,56,15.20
2017,09,29,02,57,15.20
2017,09,29,02,58,15.20
2017,09,29,02,59,15.20
2017,09,29,03,00,15.20
2017,09,29,03,01,15.20
2017,09,29,03,02,15.20
2017,09,29,03,03,15.10
2017,09,29,03,04,15.20
2017,09,29,03,05,15.20
2017,09,29,03,06,15.20
2017,09,29,03,07,15.20
2017,09,29,03,08,15.20
2017,09,29,03,09,15.20
2017,09,29,03,10,15.20
2017,09,29,03,11,15.20
2017,09,29,03,12,15.20
2017,09,29,03,13,15.20
2017,09,29,03,14,15.30
2017,09,29,03,15,15.30
2017,09,29,03,16,15.30
2017,09,29,03,17,15.40
2017,09,29,03,18,15.40
2017,09,29,03,19,15.40
2017,09,29,03,20,15.40
2017,09,29,03,21,15.40
2017,09,29,03,22,15.40
2017,09,29,03,23,15.40
2017,09,29,03,24,15.40
2017,09,29,03,25,15.40
2017,09,29,03,26,15.40
2017,09,29,03,27,15.40
2017,09,29,03,28,15.40
2017,09,29,03,29,15.40
2017,09,29,03,30,15.40
2017,09,29,03,31,15.40
2017,09,29,03,32,15.40
2017,09,29,03,33,15.50
2017,09,29,03,34,15.50
2017,09,29,03,35,15.50
2017,09,29,03,36,15.50
2017,09,29,03,37,15.50
2017,09,29,03,38,15.50
2017,09,29,03,39,15.50
2017,09,29,03,40,15.60
2017,09,29,03,41,15.60
2017,09,29,03,42,15.60
2017,09,29,03,43,15.70
2017,09,29,03,44,15.70
2017,09,29,03,45,15.80
2017,09,29,03,46,15.90
2017,09,29,03,47,15.90
2017,09,29,03,48,15.90
2017,09,29,03,49,15.90
2017,09,29,03,50,16.00
2017,09,29,03,51,16.00
2017,09,29,03,52,16.00
2017,09,29,03,53,16.00
2017,09,29,03,54,16.00
2017,09,29,03,55,16.00
2017,09,29,03,56,15.90
2017,09,29,03,57,15.90
2017,09,29,03,58,15.90
2017,09,29,03,59,15.90
2017,09,29,04,00,15.90
2017,09,29,04,01,15.90
2017,09,29,04,02,15.90
2017,09,29,04,03,15.90
2017,09,29,04,04,16.00
2017,09,29,04,05,16.00
2017,09,29,04,06,16.00
2017,09,29,04,07,16.00
2017,09,29,04,08,16.00
2017,09,29,04,09,16.00
2017,09,29,04,10,16.00
2017,09,29,04,11,16.00
2017,09,29,04,12,15.90
2017,09,29,04,13,15.90
2017,09,29,04,14,15.90
2017,09,29,04,15,15.90
2017,09,29,04,16,15.90
2017,09,29,04,17,15.90
2017,09,29,04,18,15.90
2017,09,29,04,19,15.90
2017,09,29,04,20,15.90
2017,09,29,04,21,15.90
2017,09,29,04,22,15.90
2017,09,29,04,23,15.90
2017,09,29,04,24,15.90
2017,09,29,04,25,15.90
2017,09,29,04,26,15.80
2017,09,29,04,27,15.80
2017,09,29,04,28,15.80
2017,09,29,04,29,15.80
2017,09,29,04,30,15.80
2017,09,29,04,31,15.80
2017,09,29,04,32,15.90
2017,09,29,04,33,15.90
2017,09,29,04,34,15.90
2017,09,29,04,35,16.00
2017,09,29,04,36,16.00
2017,09,29,04,37,16.10
2017,09,29,04,38,16.10
2017,09,29,04,39,16.10
2017,09,29,04,40,16.20
2017,09,29,04,41,16.20
2017,09,29,04,42,16.20
2017,09,29,04,43,16.30
2017,09,29,04,44,16.30
2017,09,29,04,45,16.40
2017,09,29,04,46,16.40
2017,09,29,04,47,16.50
2017,09,29,04,48,16.50
2017,09,29,04,49,16.60
2017,09,29,04,50,16.60
2017,09,29,04,51,16.70
2017,09,29,04,52,16.70
2017,09,29,04,53,16.70
2017,09,29,04,54,16.70
2017,09,29,04,55,16.80
2017,09,29,04,56,16.80
2017,09,29,04,57,16.80
2017,09,29,04,58,16.80
2017,09,29,04,59,16.80
2017,09,29,05,00,16.80
2017,09,29,05,01,16.90
2017,09,29,05,02,16.90
2017,09,29,05,03,16.90
2017,09,29,05,04,16.90
2017,09,29,05,05,16.90
2017,09,29,05,06,16.90
2017,09,29,05,07,16.90
2017,09,29,05,08,16.90
2017,09,29,05,09,17.00
2017,09,29,05,10,17.10
2017,09,29,05,11,17.20
2017,09,29,05,12,17.30
2017,09,29,05,13,17.40
2017,09,29,05,14,17.50
2017,09,29,05,15,17.60
2017,09,29,05,16,17.70
2017,09,29,05,17,17.70
2017,09,29,05,18,17.80
2017,09,29,05,19,17.80
2017,09,29,05,20,17.80
2017,09,29,05,21,17.90
2017,09,29,05,22,17.90
2017,09,29,05,23,17.90
2017,09,29,05,24,17.90
2017,09,29,05,25,17.90
2017,09,29,05,26,17.90
2017,09,29,05,27,17.90
2017,09,29,05,28,17.90
2017,09,29,05,29,17.90
2017,09,29,05,30,17.90
2017,09,29,05,31,17.90
2017,09,29,05,32,17.90
2017,09,29,05,33,17.90
2017,09,29,05,34,17.90
2017,09,29,05,35,17.90
2017,09,29,05,36,17.90
2017,09,29,05,37,17.90
2017,09,29,05,38,17.90
2017,09,29,05,39,17.90
2017,09,29,05,40,17.80
2017,09,29,05,41,17.80
2017,09,29,05,42,17.80
2017,09,29,05,43,17.80
2017,09,29,05,44,17.80
2017,09,29,05,45,17.80
2017,09,29,05,46,17.80
2017,09,29,05,47,17.80
2017,09,29,05,48,17.80
2017,09,29,05,49,17.80
2017,09,29,05,50,17.80
2017,09,29,05,51,17.70
2017,09,29,05,52,17.70
2017,09,29,05,53,17.70
2017,09,29,05,54,17.70
2017,09,29,05,55,17.70
2017,09,29,05,56,17.70
2017,09,29,05,57,17.70
2017,09,29,05,58,17.70
2017,09,29,05,59,17.70
2017,09,29,06,00,17.70
2017,09,29,06,01,17.70
2017,09,29,06,02,17.70
2017,09,29,06,03,17.70
2017,09,29,06,04,17.70
2017,09,29,06,05,17.70
2017,09,29,06,06,17.70
2017,09,29,06,07,17.70
2017,09,29,06,08,17.60
2017,09,29,06,09,17.50
2017,09,29,06,10,17.50
2017,09,29,06,11,17.40
2017,09,29,06,12,17.40
2017,09,29,06,13,17.30
2017,09,29,06,14,17.30
2017,09,29,06,15,17.30
2017,09,29,06,16,17.20
2017,09,29,06,17,17.20
2017,09,29,06,18,17.20
2017,09,29,06,19,17.20
2017,09,29,06,20,17.10
2017,09,29,06,21,17.10
2017,09,29,06,22,17.10
2017,09,29,06,23,17.00
2017,09,29,06,24,17.00
2017,09,29,06,25,16.90
2017,09,29,06,26,16.80
2017,09,29,06,27,16.80
2017,09,29,06,28,16.70
2017,09,29,06,29,16.70
2017,09,29,06,30,16.60
2017,09,29,06,31,16.60
2017,09,29,06,32,16.50
2017,09,29,06,33,16.50
2017,09,29,06,34,16.40
2017,09,29,06,35,16.30
2017,09,29,06,36,16.30
2017,09,29,06,37,16.30
2017,09,29,06,38,16.20
2017,09,29,06,39,16.20
2017,09,29,06,40,16.20
2017,09,29,06,41,16.10
2017,09,29,06,42,16.10
2017,09,29,06,43,16.10
2017,09,29,06,44,16.10
2017,09,29,06,45,16.10
2017,09,29,06,46,16.00
2017,09,29,06,47,16.00
2017,09,29,06,48,16.00
2017,09,29,06,49,16.00
2017,09,29,06,50,16.00
2017,09,29,06,51,16.00
2017,09,29,06,52,16.00
2017,09,29,06,53,16.00
2017,09,29,06,54,16.00
2017,09,29,06,55,16.00
2017,09,29,08,26,15.50
2017,09,29,08,27,15.50
2017,09,29,08,28,15.50
2017,09,29,08,29,15.50
2017,09,29,08,30,15.50
2017,09,29,08,31,15.50
2017,09,29,08,32,15.50
2017,09,29,08,33,15.40
2017,09,29,08,34,15.40
2017,09,29,08,35,15.40
2017,09,29,08,36,15.30
2017,09,29,08,37,15.30
2017,09,29,08,38,15.20
2017,09,29,08,39,15.20
2017,09,29,08,40,15.20
2017,09,29,08,41,15.10
2017,09,29,08,42,15.10
2017,09,29,08,43,15.10
2017,09,29,08,44,15.10
2017,09,29,08,45,15.10
2017,09,29,08,46,15.10
2017,09,29,08,47,15.10
2017,09,29,08,48,15.10
2017,09,29,08,49,15.10
2017,09,29,08,50,15.10
2017,09,29,08,51,15.10
2017,09,29,08,52,15.10
2017,09,29,08,53,15.10
2017,09,29,08,54,15.00
2017,09,29,08,55,14.90
2017,09,29,08,56,14.90
2017,09,29,08,57,14.90
2017,09,29,08,58,14.80
2017,09,29,08,59,14.80
2017,09,29,09,00,14.80
2017,09,29,09,01,14.80
2017,09,29,09,02,14.80
2017,09,29,09,03,14.80
2017,09,29,09,04,14.80
2017,09,29,09,05,14.70
2017,09,29,09,06,14.70
2017,09,29,09,07,14.70
2017,09,29,09,08,14.60
2017,09,29,09,09,14.60
2017,09,29,09,10,14.60
2017,09,29,09,11,14.60
2017,09,29,09,12,14.50
2017,09,29,09,13,14.50
2017,09,29,09,14,14.50
2017,09,29,09,15,14.40
2017,09,29,09,16,14.40
2017,09,29,09,17,14.30
2017,09,29,09,18,14.30
2017,09,29,09,19,14.20
2017,09,29,09,20,14.20
2017,09,29,09,21,14.10
2017,09,29,09,22,14.10
2017,09,29,09,23,14.10
2017,09,29,09,24,14.00
2017,09,29,09,25,14.00
2017,09,29,09,26,13.90
2017,09,29,09,27,13.90
2017,09,29,09,28,13.90
2017,09,29,09,29,13.90
2017,09,29,09,30,13.90
2017,09,29,09,31,13.90
2017,09,29,09,32,13.90
2017,09,29,09,33,13.90
2017,09,29,09,34,13.90
2017,09,29,09,35,13.90
2017,09,29,09,36,13.90
2017,09,29,09,37,13.90
2017,09,29,09,38,13.90
2017,09,29,09,39,13.90
2017,09,29,09,40,14.00
2017,09,29,09,41,13.90
2017,09,29,09,42,14.00
2017,09,29,09,43,13.90
2017,09,29,09,44,14.00
2017,09,29,09,45,14.00
2017,09,29,09,46,14.00
2017,09,29,09,47,14.00
2017,09,29,09,48,14.00
2017,09,29,09,49,14.00
2017,09,29,09,50,14.00
2017,09,29,09,51,14.00
2017,09,29,09,52,14.00
2017,09,29,09,53,14.00
2017,09,29,09,54,14.00
2017,09,29,09,55,14.10
2017,09,29,09,56,14.10
2017,09,29,09,57,14.10
2017,09,29,09,58,14.10
2017,09,29,09,59,14.20
2017,09,29,10,00,14.20
2017,09,29,10,01,14.20
2017,09,29,10,02,14.20
2017,09,29,10,03,14.20
2017,09,29,10,04,14.30
2017,09,29,10,05,14.30
2017,09,29,10,06,14.30
2017,09,29,10,07,14.30
2017,09,29,10,08,14.30
2017,09,29,10,09,14.30
2017,09,29,10,10,14.30
2017,09,29,10,11,14.30
2017,09,29,10,12,14.40
2017,09,29,10,13,14.40
2017,09,29,10,14,14.40
2017,09,29,10,15,14.40
2017,09,29,10,16,14.40
2017,09,29,10,17,14.40
2017,09,29,10,18,14.40
2017,09,29,10,19,14.40
2017,09,29,10,20,14.40
2017,09,29,10,21,14.40
2017,09,29,10,22,14.40
2017,09,29,10,23,14.50
2017,09,29,10,24,14.50
2017,09,29,10,25,14.50
2017,09,29,10,26,14.50
2017,09,29,10,27,14.50
2017,09,29,10,28,14.60
2017,09,29,10,29,14.60
2017,09,29,10,30,14.60
2017,09,29,10,31,14.60
2017,09,29,10,32,14.60
2017,09,29,10,33,14.60
2017,09,29,10,34,14.60
2017,09,29,10,35,14.60
2017,09,29,10,36,14.70
2017,09,29,10,37,14.70
2017,09,29,10,38,14.70
2017,09,29,10,39,14.70
2017,09,29,10,40,14.80
2017,09,29,10,41,14.80
2017,09,29,10,42,14.80
2017,09,29,10,43,14.80
2017,09,29,10,44,14.80
2017,09,29,10,45,14.80
2017,09,29,10,46,14.80
2017,09,29,10,47,14.80
2017,09,29,10,48,14.80
2017,09,29,10,49,14.90
2017,09,29,10,50,14.90
2017,09,29,10,51,14.90
2017,09,29,10,52,14.90
2017,09,29,10,53,14.90
2017,09,29,10,54,14.90
2017,09,29,10,55,14.90
2017,09,29,10,56,15.00
2017,09,29,10,57,15.00
2017,09,29,10,58,15.00
2017,09,29,10,59,15.10
2017,09,29,11,00,15.10
2017,09,29,11,01,15.10
2017,09,29,11,02,15.10
2017,09,29,11,03,15.10
2017,09,29,11,04,15.20
2017,09,29,11,05,15.20
2017,09,29,11,06,15.20
2017,09,29,11,07,15.20
2017,09,29,11,08,15.30
2017,09,29,11,09,15.30
2017,09,29,11,10,15.30
2017,09,29,11,11,15.30
2017,09,29,11,12,15.30
2017,09,29,11,13,15.30
2017,09,29,11,14,15.30
2017,09,29,11,15,15.30
2017,09,29,11,16,15.30
2017,09,29,11,17,15.30
2017,09,29,11,18,15.30
2017,09,29,11,19,15.30
2017,09,29,11,20,15.40
2017,09,29,11,21,15.40
2017,09,29,11,22,15.40
2017,09,29,11,23,15.40
2017,09,29,11,24,15.40
2017,09,29,11,25,15.40
2017,09,29,11,26,15.50
2017,09,29,11,27,15.50
2017,09,29,11,28,15.50
2017,09,29,11,29,15.50
2017,09,29,11,30,15.60
2017,09,29,11,31,15.60
2017,09,29,11,32,15.60
2017,09,29,11,33,15.70
2017,09,29,11,34,15.70
2017,09,29,11,35,15.70
2017,09,29,11,36,15.80
2017,09,29,11,37,15.80
2017,09,29,11,38,15.80
2017,09,29,11,39,15.80
2017,09,29,11,40,15.70
2017,09,29,11,41,15.70
2017,09,29,11,42,15.70
2017,09,29,11,43,15.70
2017,09,29,11,44,15.60
2017,09,29,11,45,15.60
2017,09,29,11,46,15.60
2017,09,29,11,47,15.60
2017,09,29,11,48,15.60
2017,09,29,11,49,15.60
2017,09,29,11,50,15.60
2017,09,29,11,51,15.60
2017,09,29,11,52,15.60
2017,09,29,11,53,15.60
2017,09,29,11,54,15.60
2017,09,29,11,55,15.60
2017,09,29,11,56,15.60
2017,09,29,11,57,15.60
2017,09,29,11,58,15.60
2017,09,29,11,59,15.70
2017,09,29,12,00,15.70
2017,09,29,12,01,15.70
2017,09,29,12,02,15.70
2017,09,29,12,03,15.70
2017,09,29,12,04,15.60
2017,09,29,12,05,15.60
2017,09,29,12,06,15.60
2017,09,29,12,07,15.60
2017,09,29,12,08,15.60
2017,09,29,12,09,15.60
2017,09,29,12,10,15.60
2017,09,29,12,11,15.60
2017,09,29,12,12,15.60
2017,09,29,12,13,15.60
2017,09,29,12,14,15.60
2017,09,29,12,15,15.70
2017,09,29,12,16,15.70
2017,09,29,12,17,15.70
2017,09,29,12,18,15.80
2017,09,29,12,19,15.80
2017,09,29,12,20,15.90
2017,09,29,12,21,15.90
2017,09,29,12,22,15.90
2017,09,29,12,23,15.90
2017,09,29,12,24,15.90
2017,09,29,12,25,15.80
2017,09,29,12,26,15.80
2017,09,29,12,27,15.90
2017,09,29,12,28,15.90
2017,09,29,12,29,15.90
2017,09,29,12,30,15.90
2017,09,29,12,31,15.90
2017,09,29,12,32,15.90
2017,09,29,12,33,15.90
2017,09,29,12,34,15.90
2017,09,29,12,35,15.90
2017,09,29,12,36,15.90
2017,09,29,12,37,15.90
2017,09,29,12,38,16.00
2017,09,29,12,39,16.00
2017,09,29,12,40,16.10
2017,09,29,12,41,16.10
2017,09,29,12,42,16.20
2017,09,29,12,43,16.10
2017,09,29,12,44,16.10
2017,09,29,12,45,16.10
2017,09,29,12,46,16.10
2017,09,29,12,47,16.10
2017,09,29,12,48,16.10
2017,09,29,12,49,16.10
2017,09,29,12,50,16.10
2017,09,29,12,51,16.10
2017,09,29,12,52,16.10
2017,09,29,12,53,16.10
2017,09,29,12,54,16.10
2017,09,29,12,55,16.10
2017,09,29,12,56,16.20
2017,09,29,12,57,16.20
2017,09,29,12,58,16.30
2017,09,29,12,59,16.40
2017,09,29,13,00,16.40
2017,09,29,13,01,16.40
2017,09,29,13,02,16.40
2017,09,29,13,03,16.40
2017,09,29,13,04,16.50
2017,09,29,13,05,16.50
2017,09,29,13,06,16.50
2017,09,29,13,07,16.50
2017,09,29,13,08,16.50
2017,09,29,13,09,16.60
2017,09,29,13,10,16.60
2017,09,29,13,11,16.60
2017,09,29,13,12,16.70
2017,09,29,13,13,16.70
2017,09,29,13,14,16.70
2017,09,29,13,15,16.70
2017,09,29,13,16,16.80
2017,09,29,13,17,16.80
2017,09,29,13,18,16.80
2017,09,29,13,19,16.90
2017,09,29,13,20,17.00
2017,09,29,13,21,17.00
2017,09,29,13,22,17.10
2017,09,29,13,23,17.10
2017,09,29,13,24,17.10
2017,09,29,13,25,17.10
2017,09,29,13,26,17.10
2017,09,29,13,27,17.20
2017,09,29,13,28,17.20
2017,09,29,13,29,17.30
2017,09,29,13,30,17.30
2017,09,29,13,31,17.40
2017,09,29,13,32,17.40
2017,09,29,13,33,17.50
2017,09,29,13,34,17.60
2017,09,29,13,35,17.60
2017,09,29,13,36,17.60
2017,09,29,13,37,17.60
2017,09,29,13,38,17.70
2017,09,29,13,39,17.70
2017,09,29,13,40,17.80
2017,09,29,13,41,17.80
2017,09,29,13,42,17.90
2017,09,29,13,43,17.90
2017,09,29,13,44,18.00
2017,09,29,13,45,18.10
2017,09,29,13,46,18.10
2017,09,29,13,47,18.10
2017,09,29,13,48,18.10
2017,09,29,13,49,18.10
2017,09,29,13,50,18.20
2017,09,29,13,51,18.30
2017,09,29,13,52,18.30
2017,09,29,13,53,18.30
2017,09,29,13,54,18.30
2017,09,29,13,55,18.30
2017,09,29,13,56,18.30
2017,09,29,13,57,18.20
2017,09,29,13,58,18.20
2017,09,29,13,59,18.20
2017,09,29,14,00,18.20
2017,09,29,14,01,18.00
2017,09,29,14,02,17.90
2017,09,29,14,03,17.70
2017,09,29,14,04,17.70
2017,09,29,14,05,17.70
2017,09,29,14,06,17.60
2017,09,29,14,07,17.40
2017,09,29,14,08,17.30
2017,09,29,14,09,17.20
2017,09,29,14,10,17.20
2017,09,29,14,11,17.20
2017,09,29,14,12,17.20
2017,09,29,14,13,17.20
2017,09,29,14,14,17.10
2017,09,29,14,15,17.00
2017,09,29,14,16,16.90
2017,09,29,14,17,16.80
2017,09,29,14,18,16.80
2017,09,29,14,19,16.80
2017,09,29,14,20,16.70
2017,09,29,14,21,16.70
2017,09,29,14,22,16.60
2017,09,29,14,23,16.60
2017,09,29,14,24,16.50
2017,09,29,14,25,16.40
2017,09,29,14,26,16.40
2017,09,29,14,27,16.40
2017,09,29,14,28,16.40
2017,09,29,14,29,16.40
2017,09,29,14,30,16.50
2017,09,29,14,31,16.60
2017,09,29,14,32,16.70
2017,09,29,14,33,16.60
2017,09,29,14,34,16.60
2017,09,29,14,35,16.60
2017,09,29,14,36,16.60
2017,09,29,14,37,16.60
2017,09,29,14,38,16.50
2017,09,29,14,39,16.50
2017,09,29,14,40,16.40
2017,09,29,14,41,16.40
2017,09,29,14,42,16.30
2017,09,29,14,43,16.30
2017,09,29,14,44,16.20
2017,09,29,14,45,16.10
2017,09,29,14,46,16.10
2017,09,29,14,47,16.10
2017,09,29,14,48,16.20
2017,09,29,14,49,16.30
2017,09,29,14,50,16.30
2017,09,29,14,51,16.30
2017,09,29,14,52,16.30
2017,09,29,14,53,16.30
2017,09,29,14,54,16.40
2017,09,29,14,55,16.50
2017,09,29,14,56,16.50
2017,09,29,14,57,16.60
2017,09,29,14,58,16.60
2017,09,29,14,59,16.50
2017,09,29,15,00,16.50
2017,09,29,15,01,16.60
2017,09,29,15,02,16.60
2017,09,29,15,03,16.60
2017,09,29,15,04,16.70
2017,09,29,15,05,16.70
2017,09,29,15,06,16.80
2017,09,29,15,07,16.80
2017,09,29,15,08,16.80
2017,09,29,15,09,16.80
2017,09,29,15,10,16.70
2017,09,29,15,11,16.60
2017,09,29,15,12,16.60
2017,09,29,15,13,16.60
2017,09,29,15,14,16.60
2017,09,29,15,15,16.60
2017,09,29,15,16,16.60
2017,09,29,15,17,16.50
2017,09,29,15,18,16.50
2017,09,29,15,19,16.50
2017,09,29,15,20,16.60
2017,09,29,15,21,16.60
2017,09,29,15,22,16.50
2017,09,29,15,23,16.60
2017,09,29,15,24,16.50
2017,09,29,15,25,16.40
2017,09,29,15,26,16.40
2017,09,29,15,27,16.40
2017,09,29,15,28,16.30
2017,09,29,15,29,16.40
2017,09,29,15,30,16.40
2017,09,29,15,31,16.50
2017,09,29,15,32,16.50
2017,09,29,15,33,16.50
2017,09,29,15,34,16.40
2017,09,29,15,35,16.40
2017,09,29,15,36,16.40
2017,09,29,15,37,16.40
2017,09,29,15,38,16.40
2017,09,29,15,39,16.40
2017,09,29,15,40,16.40
2017,09,29,15,41,16.40
2017,09,29,15,42,16.40
2017,09,29,15,43,16.30
2017,09,29,15,44,16.30
2017,09,29,15,45,16.20
2017,09,29,15,46,16.20
2017,09,29,15,47,16.10
2017,09,29,15,48,16.10
2017,09,29,15,49,16.20
2017,09,29,15,50,16.20
2017,09,29,15,51,16.30
2017,09,29,15,52,16.30
2017,09,29,15,53,16.30
2017,09,29,15,54,16.30
2017,09,29,15,55,16.20
2017,09,29,15,56,16.20
2017,09,29,15,57,16.20
2017,09,29,15,58,16.20
2017,09,29,15,59,16.10
2017,09,29,16,00,16.10
2017,09,29,16,01,16.00
2017,09,29,16,02,16.00
2017,09,29,16,03,16.00
2017,09,29,16,04,16.00
2017,09,29,16,05,16.00
2017,09,29,16,06,16.10
2017,09,29,16,07,16.10
2017,09,29,16,08,16.10
2017,09,29,16,09,16.10
2017,09,29,16,10,16.10
2017,09,29,16,11,16.20
2017,09,29,16,12,16.20
2017,09,29,16,13,16.20
2017,09,29,16,14,16.20
2017,09,29,16,15,16.20
2017,09,29,16,16,16.20
2017,09,29,16,17,16.20
2017,09,29,16,18,16.20
2017,09,29,16,19,16.20
2017,09,29,16,20,16.20
2017,09,29,16,21,16.30
2017,09,29,16,22,16.30
2017,09,29,16,23,16.30
2017,09,29,16,24,16.30
2017,09,29,16,25,16.30
2017,09,29,16,26,16.30
2017,09,29,16,27,16.20
2017,09,29,16,28,16.20
2017,09,29,16,29,16.20
2017,09,29,16,30,16.20
2017,09,29,16,31,16.20
2017,09,29,16,32,16.20
2017,09,29,16,33,16.20
2017,09,29,16,34,16.20
2017,09,29,16,35,16.10
2017,09,29,16,36,16.10
2017,09,29,16,37,16.10
2017,09,29,16,38,16.10
2017,09,29,16,39,16.10
2017,09,29,16,40,16.10
2017,09,29,16,41,16.20
2017,09,29,16,42,16.20
2017,09,29,16,43,16.20
2017,09,29,16,44,16.20
2017,09,29,16,45,16.20
2017,09,29,16,46,16.20
2017,09,29,16,47,16.20
2017,09,29,16,48,16.20
2017,09,29,16,49,16.20
2017,09,29,16,50,16.30
2017,09,29,16,51,16.30
2017,09,29,16,52,16.30
2017,09,29,16,53,16.30
2017,09,29,16,54,16.20
2017,09,29,16,55,16.20
2017,09,29,16,56,16.10
2017,09,29,16,57,16.00
2017,09,29,16,58,15.90
2017,09,29,16,59,15.80
2017,09,29,17,00,15.70
2017,09,29,17,01,15.70
2017,09,29,17,02,15.70
2017,09,29,17,03,15.60
2017,09,29,17,04,15.60
2017,09,29,17,05,15.60
2017,09,29,17,06,15.50
2017,09,29,17,07,15.50
2017,09,29,17,08,15.50
2017,09,29,17,09,15.50
2017,09,29,17,10,15.40
2017,09,29,17,11,15.40
2017,09,29,17,12,15.40
2017,09,29,17,13,15.40
2017,09,29,17,14,15.40
2017,09,29,17,15,15.40
2017,09,29,17,16,15.40
2017,09,29,17,17,15.40
2017,09,29,17,18,15.40
2017,09,29,17,19,15.40
2017,09,29,17,20,15.40
2017,09,29,17,21,15.40
2017,09,29,17,22,15.40
2017,09,29,17,23,15.40
2017,09,29,17,24,15.40
2017,09,29,17,25,15.40
2017,09,29,17,26,15.40
2017,09,29,17,27,15.30
2017,09,29,17,28,15.30
2017,09,29,17,29,15.30
2017,09,29,17,30,15.30
2017,09,29,17,31,15.30
2017,09,29,17,32,15.30
2017,09,29,17,33,15.20
2017,09,29,17,34,15.20
2017,09,29,17,35,15.20
2017,09,29,17,36,15.20
2017,09,29,17,37,15.20
2017,09,29,17,38,15.20
2017,09,29,17,39,15.20
2017,09,29,17,40,15.20
2017,09,29,17,41,15.20
2017,09,29,17,42,15.20
2017,09,29,17,43,15.30
2017,09,29,17,44,15.30
2017,09,29,17,45,15.30
2017,09,29,17,46,15.30
2017,09,29,17,47,15.40
2017,09,29,17,48,15.40
2017,09,29,17,49,15.40
2017,09,29,17,50,15.30
2017,09,29,17,51,15.30
2017,09,29,17,52,15.30
2017,09,29,17,53,15.20
2017,09,29,17,54,15.20
2017,09,29,17,55,15.20
2017,09,29,17,56,15.20
2017,09,29,17,57,15.10
2017,09,29,17,58,15.10
2017,09,29,17,59,15.10
2017,09,29,18,00,15.10
2017,09,29,18,01,15.10
2017,09,29,18,02,15.10
2017,09,29,18,03,15.00
2017,09,29,18,04,15.00
2017,09,29,18,05,14.90
2017,09,29,18,06,14.90
2017,09,29,18,07,14.90
2017,09,29,18,08,14.90
2017,09,29,18,09,14.80
2017,09,29,18,10,14.80
2017,09,29,18,11,14.80
2017,09,29,18,12,14.80
2017,09,29,18,13,14.80
2017,09,29,18,14,14.80
2017,09,29,18,15,14.70
2017,09,29,18,16,14.70
2017,09,29,18,17,14.70
2017,09,29,18,18,14.70
2017,09,29,18,19,14.60
2017,09,29,18,20,14.60
2017,09,29,18,21,14.60
2017,09,29,18,22,14.60
2017,09,29,18,23,14.60
2017,09,29,18,24,14.50
2017,09,29,18,25,14.50
2017,09,29,18,26,14.50
2017,09,29,18,27,14.50
2017,09,29,18,28,14.40
2017,09,29,18,29,14.40
2017,09,29,18,30,14.40
2017,09,29,18,31,14.40
2017,09,29,18,32,14.30
2017,09,29,18,33,14.30
2017,09,29,18,34,14.30
2017,09,29,18,35,14.30
2017,09,29,18,36,14.30
2017,09,29,18,37,14.30
2017,09,29,18,38,14.30
2017,09,29,18,39,14.30
2017,09,29,18,40,14.30
2017,09,29,18,41,14.30
2017,09,29,18,42,14.30
2017,09,29,18,43,14.30
2017,09,29,18,44,14.30
2017,09,29,18,45,14.30
2017,09,29,18,46,14.30
2017,09,29,18,47,14.20
2017,09,29,18,48,14.20
2017,09,29,18,49,14.20